Location: Gull Harbor
(47.1000°N, 122.9000°W)
Time: 10:41:00
(UTC-08:00)

N. Korean satellite - Visible Passes

Search period start: 20 January 2021 00:00
Search period end: 30 January 2021 00:00
Orbit: 453 x 502 km, 97.2° (Epoch: 19 January)

Date Brightness Start Highest point End Pass type
(mag) Time Alt. Az. Time Alt. Az. Time Alt. Az.
20 Jan 8.1 05:16:43 10° NNE 05:19:59 35° E 05:23:10 10° SSE visible
20 Jan 8.0 06:50:43 10° NNW 06:53:02 17° WNW 06:55:20 10° WSW visible
20 Jan 9.1 17:27:39 10° SSW 17:30:51 28° W 17:34:02 10° NW visible
21 Jan 9.3 04:50:48 10° NE 04:53:14 18° E 04:55:39 10° SE visible
21 Jan 7.2 06:23:30 10° N 06:26:40 32° WNW 06:29:45 10° SW visible
22 Jan 6.3 05:56:42 10° N 06:00:11 68° WNW 06:03:36 10° SSW visible
23 Jan 7.2 05:30:10 10° NNE 05:33:36 53° E 05:36:57 10° S visible
23 Jan 8.4 07:05:01 10° NW 07:06:28 12° WNW 07:07:54 10° W visible
23 Jan 9.7 17:41:48 10° SW 17:44:32 20° W 17:47:15 10° NW visible
24 Jan 8.7 05:03:58 10° NE 05:06:54 25° E 05:09:46 10° SSE visible
24 Jan 7.6 06:37:21 10° NNW 06:40:08 22° WNW 06:42:51 10° WSW visible
25 Jan 9.8 04:38:32 10° ENE 04:40:06 13° E 04:41:39 10° ESE visible
25 Jan 6.7 06:10:21 10° N 06:13:41 45° WNW 06:16:58 10° SW visible
26 Jan 6.4 05:43:40 10° NNE 05:47:09 81° ESE 05:50:34 10° S visible
26 Jan 9.9 17:56:16 10° WSW 17:58:12 14° W 18:00:09 10° WNW visible
27 Jan 8.0 05:17:16 10° NNE 05:20:30 36° E 05:23:40 10° SSE visible
27 Jan 8.0 06:51:20 10° NNW 06:53:33 16° WNW 06:55:45 10° WSW visible
28 Jan 9.3 04:51:19 10° NE 04:53:44 18° E 04:56:08 10° SE visible
28 Jan 7.2 06:24:04 10° N 06:27:09 31° WNW 06:30:11 10° SW visible
29 Jan 6.3 05:57:13 10° N 06:00:39 66° WNW 06:04:01 10° SSW visible
